Simultaneous Nadir Overpasses (SNOs) Predictions

Prediction of SNOs between AQUA and METOP-B Satellite Orbit:

Table of predicted SNOs for the next 14.0 days since TLE Epoch: 2/12/2022
Index Date (AQUA) Time (AQUA) Lat,Lon (AQUA) SZA (AQUA ) Date (METOP-B) Time (METOP-B) Lat,Lon (METOP-B) SZA (METOP-B ) Distance(km) Time Diff (sec)
1 02/14/2022 04:11:21 73.80, 111.63 86.94 02/14/2022 04:10:25 73.81, 111.55 86.96 2.56 56
2 02/14/2022 05:00:48 -73.87, -80.90 92.99 02/14/2022 05:01:06 -73.86, -80.99 93.00 3.11 18
3 02/14/2022 05:50:27 74.47, 85.35 87.66 02/14/2022 05:51:33 74.47, 87.87 87.54 75.25 66
4 02/16/2022 23:45:32 73.84, 178.00 86.02 02/16/2022 23:44:46 73.84, 178.04 86.03 1.37 46
5 02/17/2022 00:34:59 -73.91, -14.52 93.92 02/17/2022 00:35:27 -73.91, -14.49 93.93 1.51 28
6 02/19/2022 19:19:42 73.86,-115.57 85.04 02/19/2022 19:19:08 73.83,-115.59 85.02 3.47 34
7 02/19/2022 20:09:09 -73.93, 51.92 94.90 02/19/2022 20:09:48 -73.94, 52.01 94.90 3.15 39
8 02/22/2022 14:04:09 -73.13, 144.80 96.76 02/22/2022 14:03:04 -73.10, 141.82 96.64 96.37 65
9 02/22/2022 14:53:50 73.85, -49.07 84.01 02/22/2022 14:53:28 73.86, -49.12 84.02 1.58 22
10 02/22/2022 15:43:17 -73.92, 118.41 95.94 02/22/2022 15:44:09 -73.92, 118.37 95.94 1.45 52
11 02/25/2022 09:38:28 -73.67,-149.85 97.22 02/25/2022 09:37:16 -73.57,-150.71 97.26 29.08 72
12 02/25/2022 10:27:59 73.86, 17.36 82.98 02/25/2022 10:27:49 73.88, 17.35 83.00 1.85 10
13 02/25/2022 11:17:26 -73.93,-175.15 96.96 02/25/2022 11:18:30 -73.95,-175.16 96.96 1.87 64



Historial Predications of SNOs between AQUA and METOP-B
